Wind_Speed
7 7 6 5 5 6 6 7 7 7 7 6 6 7 6 6 4 4 4 3 3 3 2 2 2 3 3 3 4 5 6 8 9 10 16 12 10 14 14 12 11 9 8 7 7 9 13 13 14 13 13 13 13 14 14 15 15 11 7 7 7 8 10 8 12 9 2 3 2 7 6 2 6 6 4 4 8 16 17 7 13 16 19 18 18 21 19 21
7 6 6 5 5 6 6 6 6 6 6 5 5 6 5 5 4 3 3 3 2 1 1 1 2 3 3 4 4 6 8 8 10 14 17 12 12 16 16 16 15 10 10 11 11 12 13 13 13 13 14 14 13 14 13 14 15 11 6 7 8 9 11 13 16 7 4 5 9 8 4 1 5 8 6 3 7 12 13 9 15 21 23 26 25 21 19 20
6 6 6 6 6 6 6 6 6 6 6 5 5 5 5 4 4 3 2 2 1 0 1 1 2 2 2 3 4 6 7 8 13 15 12 10 13 17 16 17 14 11 11 13 12 13 13 12 12 12 14 14 13 14 13 12 12 11 9 7 9 11 14 17 17 8 6 9 10 7 4 4 8 9 6 5 8 10 11 12 12 21 22 24 24 20 20 20
7 7 6 6 6 6 6 6 7 7 7 6 5 5 5 5 4 4 2 1 0 1 1 2 2 2 3 3 4 5 6 9 9 8 5 6 10 12 14 13 12 12 12 13 13 12 12 12 11 13 14 12 14 15 13 12 10 10 10 9 12 14 13 14 11 7 9 10 9 11 7 7 13 7 5 8 8 10 11 16 15 18 24 24 23 21 21 21
6 7 6 6 5 5 6 7 7 8 8 7 6 5 4 4 4 4 3 1 1 1 1 2 2 3 3 3 3 3 4 4 0 3 2 4 6 9 11 11 11 12 12 13 12 12 13 14 12 13 13 11 13 13 12 15 13 9 11 13 16 16 13 11 8 3 6 7 8 11 9 11 12 6 9 11 9 9 6 12 18 21 28 25 24 22 21 22
6 6 6 6 5 5 6 7 8 8 8 8 8 5 4 3 4 4 3 2 1 1 2 3 3 4 2 2 4 2 2 3 3 3 6 5 6 7 8 9 11 13 13 12 12 12 13 13 12 13 12 10 12 12 12 16 15 9 10 14 16 17 14 11 8 2 2 5 8 10 12 12 9 9 13 10 10 3 12 15 2 23 27 23 23 22 21 22
5 5 6 6 5 5 6 7 8 8 9 9 8 7 4 3 3 4 3 2 1 1 2 3 3 4 2 3 4 3 8 9 4 5 8 7 7 7 8 10 12 15 15 13 13 12 11 13 14 13 11 9 12 14 14 16 17 13 10 12 15 16 13 11 9 5 3 8 12 12 12 11 9 12 10 9 11 4 13 16 19 27 23 20 21 20 22 23
6 5 6 5 5 5 6 7 7 8 9 9 9 8 6 4 3 4 3 2 1 1 2 3 4 4 3 3 3 7 12 10 6 8 9 7 7 6 9 11 14 17 15 13 14 12 11 13 15 13 10 10 12 14 14 15 16 13 10 13 15 14 11 10 11 9 9 11 13 13 12 12 13 12 7 8 10 8 8 11 22 21 18 19 19 20 22 23
7 6 6 6 6 6 6 7 7 8 9 9 9 8 6 5 4 4 4 2 1 1 1 3 4 3 4 3 4 8 7 4 7 10 7 5 5 7 12 12 14 16 13 13 14 13 12 13 15 15 12 13 13 13 13 11 9 8 11 15 16 14 10 10 12 13 14 14 13 12 12 15 14 9 7 9 9 8 9 13 16 13 15 17 17 18 20 22
8 7 7 7 7 7 6 7 7 8 8 9 10 8 7 6 5 4 4 2 1 1 2 4 4 2 3 3 5 7 0 1 4 5 3 5 6 10 12 13 13 14 13 12 13 14 14 13 13 14 13 15 14 11 10 9 7 8 12 15 16 15 10 11 15 15 14 14 14 12 12 15 11 6 7 7 8 6 10 15 12 12 15 14 14 14 17 20
8 8 8 8 7 7 7 7 7 7 8 9 10 9 7 6 5 4 3 2 1 1 2 4 3 3 3 3 8 7 2 1 2 3 6 7 9 11 12 12 12 12 13 11 11 13 14 12 10 11 9 8 11 10 10 12 11 11 11 12 14 13 12 14 15 12 11 12 14 13 13 12 8 7 10 8 8 8 17 20 12 12 13 15 15 15 18 18
8 9 9 8 8 8 8 7 7 7 8 9 9 9 7 6 6 5 3 2 1 1 3 4 4 5 4 7 13 8 3 2 5 6 8 9 10 10 9 11 12 13 12 9 10 12 12 10 9 12 8 4 9 7 7 14 13 11 9 10 12 12 13 16 15 12 11 11 12 13 13 9 8 10 10 10 8 9 18 21 11 12 11 14 15 14 18 17
8 9 9 9 9 8 8 7 7 7 8 8 8 8 6 6 6 6 4 2 0 2 4 4 5 5 5 9 10 5 1 2 5 7 9 10 10 9 8 10 12 13 12 9 9 10 11 9 8 14 12 9 10 4 4 8 10 10 10 9 10 11 11 15 16 14 13 11 13 12 9 7 11 11 8 10 9 10 16 21 16 16 13 13 10 7 12 14
8 8 9 9 9 9 9 8 7 7 7 8 8 7 6 6 6 5 5 3 0 2 4 5 6 5 5 7 3 5 5 3 5 9 10 11 11 9 8 9 10 11 10 9 7 6 8 9 10 13 13 14 13 8 6 7 7 8 10 9 7 8 10 14 14 13 13 11 14 10 7 6 9 10 11 8 10 10 11 17 17 15 16 16 13 11 12 13
7 7 8 9 9 9 9 8 8 8 8 8 8 8 7 6 6 5 4 3 1 3 4 5 4 4 7 10 5 5 7 7 7 9 11 12 11 9 9 10 9 9 9 8 6 5 8 9 10 12 12 14 12 9 7 8 7 7 8 8 7 9 10 10 12 12 11 9 13 8 7 7 8 11 14 9 9 10 12 11 17 18 23 23 18 16 16 14
7 7 7 8 9 9 10 9 9 9 8 8 8 8 8 7 6 6 6 4 2 3 5 3 5 7 7 6 5 5 7 9 8 10 12 12 11 10 10 10 9 8 8 8 6 5 8 10 11 13 13 10 9 8 7 6 7 7 7 7 8 10 6 9 10 12 11 9 13 10 8 8 7 11 14 8 8 11 12 8 23 26 28 28 19 16 17 17
7 7 7 8 8 8 9 9 9 9 9 8 8 8 8 9 8 7 7 5 3 3 6 4 3 8 9 4 4 8 9 10 9 11 12 12 12 10 10 10 10 9 8 8 7 7 9 10 10 10 10 8 7 7 6 7 7 7 7 7 9 12 5 7 10 11 11 11 11 11 11 11 4 11 11 10 9 11 13 8 25 28 23 24 20 18 19 21
7 7 7 7 7 7 7 8 8 7 7 6 7 8 10 11 9 8 7 6 2 1 5 7 3 6 11 13 12 12 11 10 11 12 11 10 11 8 9 11 9 9 10 9 10 10 9 10 9 7 7 7 6 7 7 6 4 4 5 6 7 10 8 8 9 10 10 11 9 8 10 13 6 11 11 14 8 8 13 9 25 31 25 25 26 24 21 21
8 7 7 7 7 7 6 6 6 5 5 5 7 10 12 12 10 8 8 7 5 5 3 8 15 6 3 11 15 11 11 11 10 11 11 10 9 8 11 12 9 11 11 7 9 11 9 8 7 7 7 7 9 9 4 6 9 12 10 6 6 7 8 8 4 8 8 8 9 9 9 13 9 11 12 10 7 8 12 10 19 31 31 33 33 29 25 25
8 7 7 7 6 6 5 4 4 4 4 5 8 10 10 8 6 4 7 11 14 14 11 7 22 18 4 8 11 9 10 10 10 11 12 11 9 9 12 12 10 11 9 7 8 9 9 7 6 9 5 3 5 2 4 8 10 12 12 7 6 7 7 8 3 10 6 5 8 9 11 14 11 9 9 8 10 11 10 10 8 17 25 30 30 30 28 27
10 8 7 7 6 5 3 2 3 3 4 6 8 9 8 6 4 2 2 12 18 21 21 15 18 21 10 4 10 10 9 10 11 12 12 12 11 10 11 12 10 8 8 12 6 5 5 7 7 9 1 3 3 6 5 7 9 10 10 8 5 6 6 4 3 9 7 3 5 6 11 12 9 10 9 7 7 8 7 8 8 10 14 14 15 27 30 25
13 9 7 6 5 4 2 2 3 3 5 7 8 10 9 9 7 7 8 11 16 19 23 18 15 16 11 5 6 8 11 11 12 14 14 14 14 11 11 11 10 8 8 11 5 2 5 8 12 9 4 4 1 5 6 7 8 8 7 7 5 7 5 5 7 5 6 3 5 7 9 10 8 11 9 5 6 8 7 7 14 13 11 11 10 23 31 22
15 10 8 6 5 4 3 4 4 5 6 7 10 12 11 9 8 9 9 10 13 15 21 19 16 14 13 12 9 9 13 12 12 15 16 15 16 14 11 10 9 9 10 10 7 6 6 5 8 5 4 2 3 3 5 6 6 7 6 7 6 7 8 2 5 3 1 1 4 8 8 8 9 8 6 7 12 10 6 10 19 17 9 12 13 15 30 25
17 13 10 7 6 5 5 6 6 8 8 8 10 10 9 9 8 10 9 9 10 11 17 19 17 16 17 14 11 15 16 14 13 17 20 16 16 14 11 11 10 9 10 10 9 10 11 3 5 5 4 2 5 4 4 5 5 7 8 9 9 9 9 5 4 4 3 3 4 9 8 6 9 7 5 11 13 9 9 15 17 12 9 13 12 8 24 29
18 15 11 9 8 7 6 7 7 8 8 10 10 6 6 7 7 9 8 7 8 9 14 16 16 16 17 13 11 15 14 14 16 15 22 17 15 14 11 11 10 8 10 11 10 10 9 2 7 6 1 3 4 5 6 6 5 7 9 11 13 13 12 7 3 6 1 5 5 7 7 5 8 9 8 11 9 8 11 14 9 9 12 12 11 9 15 27
17 16 13 10 9 7 6 6 4 6 8 12 9 4 4 6 7 9 6 4 5 6 9 13 13 11 14 15 12 12 11 12 14 11 21 16 16 14 9 8 7 8 10 8 7 6 2 1 2 2 3 5 7 7 8 7 6 6 4 6 12 12 13 11 5 2 3 5 5 7 6 5 6 8 9 12 11 11 11 10 8 12 13 12 12 11 9 19
16 16 15 11 9 7 7 6 4 6 8 5 3 3 5 6 8 8 3 4 4 6 9 11 10 9 13 15 13 11 6 5 10 14 17 12 14 12 10 8 7 7 8 5 2 2 3 4 2 2 5 6 7 7 8 9 8 5 2 5 10 10 11 12 9 6 6 6 3 7 8 6 5 7 9 12 10 13 10 9 9 12 15 14 12 11 11 15
16 15 15 12 9 8 8 9 10 11 8 7 5 6 7 7 8 5 3 4 2 7 8 9 7 6 13 14 15 16 6 6 10 12 12 10 12 11 10 11 10 8 8 7 4 0 3 5 6 4 8 6 7 9 10 11 10 5 3 6 9 9 11 11 9 8 6 6 6 7 8 6 6 7 8 12 8 10 10 11 10 10 12 13 12 13 13 13
17 15 15 13 9 8 8 10 10 11 7 7 9 7 7 8 5 2 4 3 2 5 5 8 8 7 12 12 15 20 12 8 8 7 12 12 13 13 11 10 12 12 6 7 6 3 4 7 4 5 8 6 10 12 11 12 9 5 5 7 9 10 10 9 8 7 5 5 7 7 7 6 6 6 7 9 8 8 8 8 9 9 7 4 4 6 4 2
17 15 14 12 8 7 7 7 7 6 5 6 8 7 8 8 4 3 5 2 3 6 7 8 9 11 13 10 12 16 13 9 7 6 11 11 13 16 14 13 12 10 6 5 7 9 8 5 3 6 8 8 11 11 8 9 7 4 3 6 8 9 9 7 5 6 5 6 8 11 11 9 6 5 5 6 5 8 7 8 9 10 7 2 2 1 2 1
16 15 13 12 8 5 7 6 5 6 4 7 9 7 6 5 3 4 5 2 3 6 8 7 9 13 14 12 10 12 13 12 8 9 9 8 10 13 11 11 8 6 6 5 7 11 9 6 5 8 11 10 11 10 7 8 7 5 4 6 7 6 6 5 4 4 6 6 7 11 13 11 8 5 2 3 2 7 6 7 7 9 9 7 5 3 2 2
16 15 13 11 9 8 8 7 4 4 8 10 10 7 5 5 5 5 5 3 3 4 7 7 10 12 14 15 11 11 12 11 10 10 9 8 8 8 8 7 5 4 6 6 5 6 7 7 8 10 10 10 10 7 6 8 7 6 6 5 6 5 4 5 5 5 6 6 5 7 8 8 7 4 3 1 2 7 5 3 8 10 11 11 8 5 5 4
15 15 13 11 11 11 10 9 6 8 11 9 7 6 5 5 6 7 8 5 2 4 5 8 10 10 12 13 11 11 11 9 11 11 10 10 8 8 9 10 9 7 5 4 4 4 5 8 10 9 9 11 8 6 6 6 5 6 6 5 5 5 5 5 6 5 6 6 6 5 5 5 5 4 6 5 4 8 7 7 10 10 10 11 7 6 6 4
15 15 14 13 13 13 12 10 8 8 7 6 6 6 6 7 7 8 9 7 5 6 7 8 9 10 12 12 10 10 9 8 10 10 9 10 8 7 8 11 12 8 4 4 4 5 6 6 8 9 6 9 8 8 8 7 5 6 6 6 5 4 5 5 5 5 5 5 5 5 4 3 3 4 4 4 8 7 7 9 10 10 10 8 6 6 7 6
14 14 14 14 14 14 12 11 9 7 6 6 7 6 7 7 7 8 8 8 8 7 7 9 9 9 11 11 10 11 10 7 9 10 8 9 8 7 7 9 10 7 5 6 3 4 8 6 6 8 2 4 5 8 8 9 7 4 5 6 4 4 5 5 5 6 5 5 5 4 3 2 2 3 2 7 9 7 8 10 10 10 10 9 6 5 6 7
12 13 14 14 14 13 12 11 10 7 6 7 7 7 8 7 7 8 6 6 6 6 8 9 8 8 8 7 8 11 10 6 7 8 7 9 10 10 8 6 6 7 6 5 2 2 6 5 4 8 5 4 8 9 6 6 4 2 3 4 4 5 6 5 5 5 5 6 5 4 5 4 3 5 4 7 7 8 9 11 11 11 11 10 8 6 7 8
10 11 14 14 13 12 11 11 10 9 8 8 7 7 7 8 10 10 7 6 6 5 7 8 6 7 8 6 7 9 8 6 8 7 6 9 9 8 9 7 6 6 5 4 3 1 2 5 4 4 6 9 10 7 7 6 6 5 4 2 2 5 6 4 4 5 5 6 5 4 6 7 5 4 6 9 9 9 10 10 11 12 11 10 8 9 9 9
11 12 15 17 15 12 12 12 12 12 10 8 8 9 9 10 12 13 10 6 6 6 8 7 4 5 7 6 7 9 7 6 9 9 7 8 4 2 4 6 7 6 5 4 2 1 1 5 7 7 9 8 8 5 6 9 9 9 7 4 3 4 5 4 4 4 5 5 5 6 8 8 5 3 5 11 11 9 10 10 10 12 12 10 10 10 10 10
11 11 14 17 13 13 13 12 13 13 10 8 8 8 8 11 15 18 13 6 6 8 8 8 6 5 6 7 7 8 10 9 8 8 7 7 3 2 3 2 4 6 5 5 4 3 3 4 4 6 11 10 5 5 4 6 8 11 9 6 5 4 4 4 4 4 5 6 5 6 8 5 2 3 5 9 10 10 11 10 10 12 12 12 12 10 10 11
9 10 11 9 11 14 12 11 12 12 8 8 8 8 10 11 14 17 11 3 5 9 7 8 9 6 7 10 9 7 9 9 9 8 7 5 3 2 5 5 5 5 4 3 5 4 3 3 4 6 9 9 4 4 5 5 5 6 6 6 5 4 4 5 5 4 5 6 5 5 6 2 2 1 2 3 6 10 10 7 7 11 12 12 13 11 11 12
9 9 7 8 12 13 12 10 10 9 7 8 9 10 11 9 11 13 7 3 7 11 10 9 9 7 5 8 8 7 8 8 8 7 6 6 5 6 7 7 7 6 4 3 4 3 2 3 4 6 6 7 6 6 7 7 6 6 5 5 5 5 3 3 4 4 5 5 5 6 5 1 1 1 1 2 2 5 7 7 6 10 13 14 15 13 12 12
8 7 5 11 13 13 12 8 8 9 8 8 10 13 10 4 7 11 8 6 7 9 11 10 8 7 6 6 6 8 8 7 8 7 7 8 3 2 3 6 4 2 0 3 2 3 2 2 5 6 6 8 10 11 12 11 8 7 7 7 6 6 4 3 4 4 4 5 5 5 3 1 2 2 2 2 3 1 4 6 5 10 15 15 14 13 12 13
9 7 3 9 11 12 10 7 7 8 8 10 14 16 14 7 7 11 11 10 7 6 8 7 6 6 7 6 6 8 7 6 9 8 8 7 3 9 7 5 3 2 1 5 4 5 2 2 5 7 7 8 11 13 14 14 9 7 8 7 7 8 8 7 7 5 4 6 6 5 4 1 2 5 5 3 2 2 5 6 7 12 18 15 13 13 12 12
12 11 6 7 8 10 10 7 7 7 8 12 14 14 14 11 9 10 11 10 8 6 6 5 5 5 6 6 6 7 6 5 7 8 10 8 4 9 7 6 2 2 1 2 3 4 1 3 4 6 6 6 8 8 9 9 7 5 5 5 6 9 10 9 8 6 5 7 8 8 6 1 1 2 2 3 3 3 5 8 9 13 16 12 11 13 12 11
13 12 10 10 11 11 11 9 9 8 8 11 11 11 13 11 9 10 10 9 9 6 4 5 6 5 5 7 6 6 7 7 6 6 9 7 4 6 5 5 2 2 6 9 6 3 3 3 3 5 5 5 6 4 2 3 4 5 6 6 7 9 10 9 7 5 5 7 7 8 6 1 2 2 1 5 6 4 4 7 9 10 13 12 10 12 12 10
9 6 6 8 10 11 13 13 13 11 7 8 8 8 10 9 9 10 8 9 10 8 5 6 7 5 5 7 6 6 7 8 7 6 7 7 4 6 5 4 3 7 12 10 5 2 4 4 6 8 8 8 9 9 9 9 7 8 9 9 9 8 9 8 6 5 5 6 6 7 7 5 2 1 4 6 7 7 5 4 5 7 11 12 10 11 12 10
7 4 4 4 4 6 9 11 12 9 8 8 6 6 9 10 9 7 5 6 10 8 5 7 8 6 5 6 6 6 7 8 9 8 8 9 5 5 8 4 3 9 8 3 1 1 3 5 8 10 12 13 14 15 15 14 13 13 12 13 12 11 10 8 7 7 8 7 7 7 8 9 8 7 5 6 6 6 6 5 7 6 5 12 12 11 11 12
6 6 7 10 6 5 4 6 8 7 7 7 5 7 8 9 9 7 5 4 8 5 4 6 8 8 8 8 6 6 7 9 9 9 8 8 5 3 6 3 4 9 4 3 4 4 4 6 8 10 13 15 15 16 15 14 14 14 14 15 15 14 12 10 10 12 10 8 9 9 10 10 10 12 10 9 9 8 8 9 10 9 3 8 14 14 12 12
12 10 11 15 10 6 6 9 10 9 7 4 3 6 8 7 8 8 5 3 5 5 5 6 7 8 10 10 8 6 4 5 6 6 6 6 6 4 3 3 4 7 5 4 4 4 4 5 6 9 12 14 14 15 14 14 14 14 16 17 15 14 14 12 12 14 14 13 13 13 12 10 10 11 11 11 14 15 14 13 12 11 9 7 9 12 13 13
14 10 12 17 12 7 8 9 8 7 5 2 2 4 6 7 7 7 6 5 3 5 7 8 8 9 11 11 8 2 4 5 5 5 7 7 4 4 5 4 3 5 6 5 3 3 3 2 4 6 9 11 12 13 13 14 15 15 16 17 16 16 16 14 12 12 12 13 13 11 10 8 8 10 11 12 15 16 14 15 14 14 13 13 13 12 13 14
15 10 10 13 9 7 8 7 5 6 3 3 4 3 5 7 6 4 4 4 3 4 6 8 9 10 11 10 4 6 8 7 6 6 6 6 5 4 4 4 5 7 6 5 4 3 3 2 5 6 7 8 10 12 13 14 15 17 16 16 16 15 12 10 10 10 9 10 11 9 8 6 6 10 11 12 12 12 13 16 17 15 14 13 13 17 19 16
19 12 12 11 8 7 8 5 3 4 4 5 5 5 6 6 5 5 5 3 5 5 4 8 10 9 7 7 8 10 8 6 7 7 7 7 8 7 7 8 9 7 5 5 4 3 3 4 5 6 7 8 10 12 13 12 12 11 9 8 10 12 10 10 10 10 9 7 7 7 6 6 8 9 9 10 11 11 13 16 17 18 18 17 14 10 15 17
Wind_Direction
342 343 341 342 340 334 332 325 323 326 325 330 336 337 336 332 335 337 333 327 298 278 253 232 236 251 255 253 262 261 261 259 250 246 249 240 230 246 249 247 247 239 229 214 189 203 217 220 227 228 230 232 233 240 241 235 233 236 237 241 252 251 252 254 252 260 323 278 77 80 72 28 300 298 273 242 242 263 262 203 115 100 96 107 130 139 158 159
356 356 353 353 345 341 339 333 334 334 333 335 339 346 343 337 342 349 353 338 304 282 237 216 219 232 246 255 262 268 267 267 264 255 244 231 234 242 238 240 243 231 213 198 198 213 215 214 221 222 225 233 229 228 237 229 220 230 244 235 243 250 256 258 255 266 46 324 343 25 38 286 286 298 293 263 249 257 259 218 129 111 104 111 124 135 148 155
3 2 360 357 353 353 353 355 354 350 347 339 339 347 345 348 352 356 3 349 321 174 204 207 226 242 245 256 266 276 279 285 279 266 251 234 236 238 235 238 233 221 210 199 204 216 219 220 218 218 225 234 233 226 227 220 209 222 239 244 243 244 254 264 270 300 345 317 326 326 314 306 277 276 276 277 261 247 248 234 161 128 123 120 125 139 150 156
3 3 1 2 2 5 8 13 11 6 4 352 341 338 345 354 357 3 355 339 308 199 196 210 236 246 244 264 273 290 304 301 281 255 240 242 245 239 235 232 216 209 203 195 212 226 228 233 227 222 229 235 235 233 228 218 212 217 226 243 251 253 263 279 295 323 306 294 300 297 306 291 273 273 277 275 267 249 233 232 211 147 133 131 130 141 154 159
359 1 3 6 6 12 17 19 19 16 14 8 356 336 339 352 2 8 343 327 282 224 199 225 234 238 251 273 272 306 318 317 61 173 237 268 263 247 231 219 202 195 189 193 222 240 231 234 239 230 229 240 239 233 228 221 223 229 233 242 257 271 286 300 310 304 280 283 290 289 280 273 278 282 265 259 259 262 273 257 226 162 138 142 144 145 158 163
351 356 2 6 7 14 22 22 22 20 17 13 7 352 337 345 359 358 333 331 285 228 214 226 228 237 250 249 260 285 272 316 62 207 269 285 271 256 223 204 189 180 181 199 230 239 230 231 237 231 225 237 245 238 227 222 227 238 245 247 256 270 276 286 301 311 253 269 270 267 261 270 284 271 254 246 249 258 25 1 160 143 137 147 151 155 166 165
335 344 349 359 4 10 14 16 18 17 17 12 9 7 352 341 347 347 335 327 294 223 219 227 228 229 228 237 273 278 252 279 298 244 274 276 261 250 210 189 176 175 183 211 233 228 221 222 225 228 226 231 243 246 234 226 231 236 246 253 254 261 261 261 278 286 253 253 258 258 261 267 268 265 245 227 239 151 64 40 85 114 126 136 144 156 166 166
315 324 331 339 348 357 357 0 8 11 12 9 7 9 2 350 339 343 339 323 301 249 229 230 224 221 244 253 301 283 254 254 255 264 281 262 247 226 192 176 171 176 185 216 233 223 216 221 225 226 228 231 235 241 238 233 234 229 241 260 265 268 265 261 262 263 254 249 250 250 258 257 252 261 249 229 227 160 125 103 99 108 122 132 144 154 166 172
300 301 310 319 328 338 341 346 355 1 4 6 3 2 3 358 341 341 335 320 302 265 231 229 225 226 268 297 316 288 259 222 261 277 272 228 216 190 175 168 170 176 193 225 233 223 218 221 225 226 234 247 252 251 241 235 230 226 238 250 259 257 249 255 255 249 248 245 242 239 248 249 244 254 255 233 207 168 165 147 125 126 128 134 151 155 168 176
294 292 293 303 313 320 327 334 342 351 355 360 1 359 360 356 345 340 330 316 290 267 233 230 230 241 278 316 299 285 332 127 282 286 215 183 167 163 162 167 175 189 214 231 227 223 225 229 232 236 248 259 269 274 251 231 227 246 256 248 250 257 250 248 248 241 236 235 237 237 244 242 226 229 244 206 176 161 145 141 141 143 131 127 146 158 169 177
287 286 287 291 298 306 313 320 330 341 346 353 360 2 2 2 358 349 345 341 297 234 226 229 242 264 271 280 266 273 21 135 187 154 167 159 154 153 157 179 190 206 223 225 225 228 229 241 257 251 252 261 263 264 248 240 242 253 269 262 255 261 260 253 250 240 234 233 230 236 247 237 199 215 232 179 167 179 137 128 137 149 133 123 141 165 171 173
283 279 281 285 288 295 299 305 319 331 340 349 357 4 6 9 9 2 4 13 358 196 221 232 249 273 297 275 256 259 329 211 184 171 171 162 164 168 173 198 205 212 222 217 225 236 236 256 275 247 246 290 263 258 243 234 244 255 257 264 260 254 246 244 244 231 236 233 209 230 252 228 209 228 213 162 181 200 139 128 155 171 146 127 136 163 169 171
287 279 277 278 281 287 290 294 305 322 335 342 354 3 6 5 5 6 11 15 88 204 222 230 259 286 301 280 253 225 221 201 186 179 179 179 182 193 208 214 211 220 237 239 231 229 236 259 266 253 262 273 258 324 348 230 236 253 242 250 254 253 238 225 227 220 232 230 193 218 250 214 220 213 162 148 185 203 148 141 171 178 157 135 130 171 172 170
293 286 280 274 275 278 283 287 295 311 326 333 345 352 353 352 343 348 1 1 271 228 225 234 273 288 274 273 242 198 215 183 182 188 183 189 194 204 215 213 215 229 244 256 257 221 228 253 256 261 267 262 270 322 315 236 235 246 239 245 239 257 245 206 203 209 223 208 176 207 251 230 220 161 140 172 184 211 191 161 168 163 144 139 144 174 175 172
297 293 286 277 274 272 275 280 287 300 314 323 330 336 340 339 331 320 319 335 299 234 227 239 287 299 268 263 232 215 216 179 184 191 182 191 198 199 199 202 214 225 224 238 268 228 227 248 246 252 249 245 264 285 259 224 226 233 233 236 220 252 248 179 172 199 212 178 163 211 257 248 235 155 148 193 191 211 230 170 141 125 121 130 143 162 167 166
302 299 294 285 279 274 273 275 280 289 301 310 315 324 327 320 321 302 284 305 292 233 221 234 333 320 291 268 200 191 198 191 195 186 185 195 191 182 182 191 200 204 209 223 251 238 229 240 239 250 258 245 235 242 250 234 221 215 230 242 225 241 226 146 172 196 202 189 177 204 247 256 231 156 143 175 212 210 234 177 130 120 120 128 141 159 163 159
307 306 302 293 287 281 279 276 278 285 288 294 302 310 313 306 305 295 274 273 276 236 216 207 342 295 266 261 209 198 199 199 188 178 190 203 199 180 172 189 197 194 204 215 230 233 227 233 237 245 254 252 238 235 241 236 226 203 215 238 240 245 218 156 181 185 203 220 200 189 229 259 143 119 139 170 216 216 229 192 127 131 143 149 165 175 169 166
314 311 309 303 295 290 288 285 284 285 279 281 294 298 302 300 296 286 254 246 270 211 234 221 208 280 251 234 228 207 197 190 179 184 192 204 216 200 183 199 196 190 209 216 218 225 221 223 234 240 231 231 238 239 236 242 283 306 241 224 235 247 235 208 182 168 199 220 227 201 218 249 162 137 187 187 205 231 236 209 135 143 163 171 182 183 175 175
321 314 314 310 304 303 302 299 292 281 274 275 290 297 299 293 281 269 239 232 219 185 236 201 191 234 274 204 211 197 183 179 177 192 195 198 217 212 201 209 208 208 218 210 200 211 217 217 229 238 226 224 224 222 258 319 341 335 301 245 237 255 240 239 170 142 189 200 220 230 224 241 209 182 206 191 195 222 241 236 153 151 163 172 181 180 174 175
330 317 319 315 312 316 314 312 292 272 278 284 298 300 296 290 263 231 205 222 233 235 267 225 197 222 254 168 178 160 158 176 187 198 198 196 204 213 210 216 226 223 228 232 200 194 221 232 234 239 235 243 252 256 348 338 332 325 312 280 239 249 238 247 192 138 180 225 212 228 236 236 227 219 215 188 198 207 232 260 193 166 175 180 181 177 173 171
339 323 319 319 317 321 321 310 280 279 293 290 297 288 289 338 352 334 238 237 245 243 255 257 213 225 255 162 156 160 171 187 199 205 200 196 203 213 204 210 229 217 223 243 216 145 220 252 248 243 239 63 1 3 352 324 319 312 312 310 276 253 238 232 183 144 150 252 255 256 255 242 226 237 238 200 204 211 215 261 258 213 205 215 194 171 170 168
349 331 319 318 313 313 292 265 275 285 295 286 289 280 292 353 359 328 318 274 263 241 236 246 234 234 250 227 180 188 199 193 199 207 198 194 207 214 190 195 227 220 213 233 232 162 212 243 252 235 118 97 32 5 327 313 310 297 294 295 295 276 258 89 84 137 143 178 257 265 261 259 232 228 246 227 227 240 214 240 264 245 214 243 235 168 165 168
356 341 324 311 300 297 259 258 274 276 290 291 288 285 297 335 339 323 315 282 274 245 225 228 233 235 229 223 214 212 219 208 199 198 191 194 209 218 211 206 226 231 219 209 211 245 231 221 247 235 92 47 322 331 303 307 286 274 279 272 272 262 254 138 113 176 169 137 257 277 276 292 279 238 251 250 230 230 213 230 254 259 219 224 250 180 162 166
357 348 330 310 296 289 265 266 273 279 291 293 290 282 293 318 328 331 317 278 276 248 223 217 221 227 219 216 211 213 227 224 211 190 179 196 213 213 226 235 238 244 239 217 199 234 262 262 105 92 65 1 308 296 270 281 267 251 248 256 266 263 262 269 122 115 346 318 280 289 285 287 280 245 234 252 228 199 215 230 235 247 234 217 240 203 162 163
355 350 337 321 301 286 274 281 293 307 295 282 296 293 293 315 322 334 328 276 265 238 221 211 213 224 213 200 200 213 225 234 243 205 171 190 218 208 214 232 242 246 240 236 221 226 258 306 103 116 174 224 248 262 238 235 259 252 233 237 255 271 282 286 115 113 281 272 228 247 264 252 250 229 217 242 224 184 223 238 223 225 240 223 210 217 182 166
348 347 340 327 309 289 278 289 308 319 283 267 285 302 301 311 313 325 321 270 261 208 195 190 195 205 192 183 190 216 227 232 247 197 166 191 224 226 233 220 227 253 254 257 242 225 210 175 178 224 262 251 245 252 245 235 249 262 261 257 252 261 279 276 260 225 236 260 209 200 244 257 244 239 237 241 216 192 218 232 228 226 234 237 212 214 211 163
337 342 339 329 314 293 270 267 254 273 291 294 290 313 322 305 305 319 288 266 263 182 167 169 177 183 188 185 185 209 234 206 196 163 160 196 217 228 256 233 223 242 252 277 257 243 257 211 187 292 273 257 251 249 240 233 241 258 341 302 265 252 261 262 259 254 244 262 232 193 234 264 261 258 270 265 213 178 204 221 227 226 213 220 215 206 222 187
327 332 335 328 311 296 273 263 258 257 289 346 330 306 318 297 300 319 259 270 229 167 163 167 169 191 200 188 189 212 211 149 176 163 166 206 210 216 240 243 261 266 231 237 231 158 279 213 161 226 259 250 249 252 238 228 229 238 266 277 270 262 259 255 248 245 246 265 255 219 229 248 259 256 262 266 222 173 207 214 211 228 210 205 208 206 214 203
320 322 329 326 305 301 285 270 272 257 258 323 321 304 303 293 298 298 253 264 192 169 162 168 169 198 206 183 192 223 222 174 196 185 179 202 212 224 248 257 275 289 256 219 230 237 249 246 219 227 246 246 246 245 241 242 234 234 284 290 281 275 266 260 256 256 252 260 264 254 247 247 256 255 245 248 225 194 217 209 194 209 209 194 209 218 218 194
314 314 321 320 304 304 294 278 300 294 263 295 303 297 295 286 275 248 240 234 212 193 156 156 175 191 202 192 195 221 231 212 198 176 183 198 210 226 258 274 272 283 270 208 239 254 229 223 286 272 253 252 256 252 256 268 253 215 249 269 264 261 258 257 265 276 267 250 253 254 252 252 258 260 262 265 219 188 205 219 198 185 182 142 80 217 264 286
309 307 311 309 291 277 270 271 341 358 290 273 280 283 282 262 239 243 233 248 265 197 160 168 193 187 196 212 206 200 220 227 184 165 193 201 205 215 237 258 256 267 268 229 236 254 240 191 194 240 252 264 271 270 272 269 250 232 242 259 261 251 249 259 254 251 255 248 248 254 250 246 251 254 277 351 86 155 201 232 184 151 155 149 127 141 107 78
303 301 302 297 276 252 245 257 325 326 271 267 275 273 262 246 232 233 239 269 290 200 187 208 204 187 193 212 215 193 210 231 199 187 210 207 197 204 215 227 216 223 251 242 222 238 258 255 226 210 213 235 261 267 256 247 240 250 255 252 263 255 241 255 248 237 248 255 262 280 276 251 244 238 214 247 132 165 193 160 139 143 144 139 136 137 103 81
297 295 293 283 266 252 244 251 271 276 274 279 278 261 247 248 239 238 244 248 231 211 233 238 213 195 197 210 217 203 206 229 214 200 207 213 207 197 215 227 210 207 240 265 263 232 239 265 262 238 193 195 229 252 244 233 209 225 246 238 240 248 243 246 247 246 251 257 252 263 286 272 251 248 235 221 168 170 162 128 143 150 135 135 149 154 147 138
287 290 288 280 268 257 248 249 259 270 281 281 263 245 233 242 251 259 261 249 235 237 254 254 227 207 211 219 215 202 211 230 221 213 202 209 225 204 209 229 221 216 235 239 253 247 242 253 245 241 187 162 204 246 259 273 249 217 237 249 235 233 248 252 256 264 271 282 268 239 247 270 253 264 257 139 124 144 149 136 135 129 131 156 173 155 142 121
280 286 284 274 265 259 249 245 253 265 271 261 252 237 229 239 247 251 257 251 238 237 253 255 239 222 222 226 218 209 219 224 208 222 224 209 225 224 209 225 225 224 241 234 219 224 247 256 214 219 197 124 218 252 254 274 280 223 215 245 241 223 236 253 270 282 294 302 286 244 237 262 183 234 233 128 134 160 163 148 140 147 163 170 160 142 122 101
277 284 284 273 261 258 249 238 238 242 248 248 245 239 234 241 249 248 268 288 269 244 248 246 235 239 236 225 234 222 209 212 208 220 237 222 225 229 213 205 208 213 234 255 273 238 252 267 189 189 204 211 243 261 251 250 285 294 235 246 260 253 245 251 263 263 259 265 264 238 242 250 200 204 190 153 173 188 164 154 164 172 163 147 139 133 115 99
270 267 276 273 258 248 238 228 221 220 235 245 245 249 248 247 253 257 274 304 305 278 260 252 227 240 240 218 241 234 189 193 223 224 238 231 225 224 206 177 173 213 254 295 291 295 276 286 276 219 227 222 226 263 288 275 283 290 268 239 240 253 250 248 259 252 243 253 255 236 244 250 240 222 181 181 206 200 172 171 173 161 146 141 137 122 111 103
275 259 263 266 254 227 212 207 207 216 232 246 247 251 260 262 262 268 274 285 291 275 260 256 227 231 249 233 231 236 217 213 227 229 235 225 217 268 214 170 170 218 278 312 276 271 259 276 288 280 270 245 204 210 270 265 255 255 271 294 270 255 253 242 248 258 256 260 260 259 259 253 256 262 192 191 205 198 186 188 173 156 154 148 132 121 118 111
287 266 265 263 236 198 193 197 206 221 232 242 246 245 252 256 257 263 272 290 292 276 264 264 249 223 243 253 239 231 236 239 234 233 234 216 190 352 296 204 178 206 248 268 263 272 264 271 280 270 276 275 225 196 246 257 237 230 241 263 265 264 270 258 245 249 261 264 266 274 271 262 297 298 220 196 200 200 198 198 178 168 169 150 131 129 124 115
288 269 267 242 191 180 190 200 211 223 231 237 245 249 252 255 257 259 263 274 282 275 267 270 266 243 230 243 245 239 239 242 240 241 246 225 164 193 237 233 218 194 185 249 274 285 276 274 273 271 284 288 258 221 255 281 278 251 236 241 253 258 259 261 258 251 258 265 270 278 273 291 39 295 225 206 215 205 202 209 189 173 169 147 133 132 125 118
284 270 249 185 171 179 191 202 217 228 235 237 242 250 258 273 281 275 268 244 269 276 274 274 281 289 274 247 242 241 239 241 243 248 255 240 213 214 213 203 217 214 166 207 255 280 286 273 272 271 274 271 258 248 256 266 277 283 277 267 270 276 271 270 273 273 279 282 288 289 284 315 359 260 104 34 276 206 199 210 193 165 153 137 127 128 127 124
269 256 203 178 183 186 191 211 228 226 234 240 241 245 250 282 288 274 259 229 235 257 265 266 269 282 284 266 254 250 245 242 243 243 250 249 231 122 148 157 184 210 77 271 282 57 48 286 279 272 265 272 278 278 278 280 278 278 284 284 281 280 272 260 266 273 285 288 289 293 302 350 318 338 43 35 13 340 218 203 173 141 133 129 128 132 134 130
259 256 194 182 194 195 203 235 238 227 238 247 248 248 249 253 263 265 264 253 237 235 250 260 264 267 268 262 261 258 250 247 251 250 254 255 97 90 108 121 126 129 132 280 306 49 49 262 262 270 276 282 279 272 272 275 270 257 258 266 276 279 277 275 278 280 278 280 279 276 269 259 355 4 2 338 324 255 216 189 168 132 123 130 138 136 137 134
290 288 260 197 191 204 218 237 239 236 241 243 248 254 256 257 256 260 265 261 254 245 251 272 280 279 278 274 271 267 259 248 244 247 257 256 111 103 113 105 109 249 101 36 13 34 337 247 239 263 278 277 266 253 249 255 259 262 267 277 288 289 288 283 279 281 275 273 276 276 273 265 30 3 343 324 302 241 203 188 171 134 127 147 156 141 139 138
302 292 258 211 186 204 230 243 250 255 254 255 258 256 257 257 250 256 273 284 280 277 283 281 275 283 285 277 274 266 266 268 255 246 257 252 140 129 146 121 126 330 54 59 47 13 288 272 268 266 267 270 270 271 299 324 320 313 310 302 296 303 312 311 294 273 267 274 276 273 277 287 129 163 22 335 307 277 233 205 186 160 159 170 164 148 143 140
293 290 265 227 196 207 235 246 254 262 269 279 284 271 262 256 245 247 266 282 274 269 278 274 270 284 280 273 280 271 265 273 268 252 255 253 204 156 159 160 134 82 65 54 38 338 282 277 273 268 267 274 283 295 316 328 313 293 292 288 280 284 298 304 294 273 279 295 283 272 290 316 294 233 37 2 313 292 290 266 241 215 177 158 151 153 151 153
280 299 343 323 261 241 243 244 251 256 254 258 261 258 256 256 254 238 213 258 268 264 274 275 267 271 267 265 278 280 274 275 269 258 251 256 256 124 123 151 138 102 80 36 307 245 269 257 254 261 265 270 279 289 297 301 292 284 287 286 281 281 284 281 278 286 297 295 278 284 313 320 309 312 351 357 323 312 318 307 288 276 158 140 153 170 177 181
336 324 8 15 329 275 289 304 306 305 288 278 275 270 264 257 259 242 201 261 289 274 255 265 264 263 261 257 254 257 268 270 268 271 264 258 260 138 137 167 131 115 118 259 230 209 249 257 253 261 265 267 272 277 279 282 282 282 282 280 281 290 290 276 266 272 276 275 278 289 295 291 297 306 311 315 316 309 298 285 277 283 265 168 172 183 197 200
7 342 355 0 331 287 324 334 326 320 312 314 317 292 281 269 269 269 251 260 294 292 281 275 268 266 265 261 255 254 274 285 284 302 318 299 284 279 257 226 158 150 177 232 228 206 227 256 264 271 274 274 274 276 281 284 283 283 282 279 278 281 278 272 273 277 275 274 276 281 285 285 288 292 296 309 312 303 296 287 269 261 262 241 205 197 209 220
3 348 344 341 327 312 327 325 310 300 295 314 312 295 294 286 277 279 270 259 283 317 308 293 290 298 292 276 265 283 40 26 353 347 355 342 313 297 300 297 268 245 240 249 242 185 187 261 294 292 284 281 281 282 283 282 280 280 281 282 286 286 281 279 281 280 276 274 276 283 292 296 301 305 304 300 296 294 299 296 282 268 259 248 235 226 232 237
358 349 339 332 324 322 321 310 296 295 312 359 347 334 326 306 294 301 303 302 319 329 328 322 319 322 313 298 321 35 37 22 360 350 343 327 307 301 303 300 302 298 281 269 256 173 171 266 302 294 279 279 283 279 278 281 283 280 278 285 290 287 285 289 286 277 275 282 286 290 289 290 327 341 329 312 307 314 323 321 318 318 309 284 251 230 231 236
2 356 348 339 316 303 308 308 337 353 348 348 346 345 334 315 318 345 357 344 308 296 346 353 331 312 313 340 16 22 3 348 343 334 324 308 294 291 285 278 285 295 290 276 269 244 236 257 278 280 277 283 286 287 293 297 288 278 281 299 303 296 298 310 310 300 303 315 309 294 299 326 344 340 328 334 343 338 333 332 332 336 339 338 328 280 238 228
Height
1489 1489 1488 1487 1487 1486 1485 1485 1484 1484 1483 1482 1481 1481 1480 1479 1479 1478 1478 1477 1477 1477 1477 1477 1476 1477 1476 1476 1476 1476 1476 1475 1475 1475 1473 1472 1473 1474 1474 1475 1475 1476 1477 1478 1478 1479 1481 1481 1481 1482 1482 1481 1480 1479 1478 1476 1475 1475 1474 1478 1477 1471 1464 1456 1451 1447 1444 1445 1444 1445 1448 1453 1454 1451 1450 1453 1455 1452 1450 1450 1456 1462 1462 1464 1466 1470 1473 1475
1489 1489 1488 1488 1487 1486 1486 1485 1484 1484 1483 1482 1481 1481 1480 1479 1479 1478 1478 1478 1478 1477 1477 1477 1477 1476 1476 1476 1476 1476 1475 1474 1474 1472 1470 1471 1473 1473 1473 1474 1475 1476 1476 1477 1477 1479 1480 1480 1480 1481 1480 1479 1477 1476 1476 1473 1473 1473 1472 1474 1473 1465 1457 1449 1443 1440 1444 1448 1447 1448 1451 1454 1455 1453 1452 1454 1454 1452 1451 1451 1456 1462 1464 1465 1467 1471 1475 1477
1490 1489 1488 1488 1487 1486 1486 1485 1484 1484 1483 1482 1481 1481 1480 1479 1479 1478 1478 1478 1478 1477 1477 1477 1477 1476 1476 1476 1476 1475 1475 1474 1473 1469 1468 1470 1471 1471 1472 1473 1474 1475 1475 1476 1477 1479 1479 1478 1479 1479 1478 1477 1475 1474 1473 1471 1470 1470 1471 1472 1466 1458 1452 1445 1440 1439 1445 1449 1449 1451 1452 1453 1454 1453 1453 1454 1454 1453 1452 1450 1453 1459 1463 1465 1468 1472 1475 1479
1490 1490 1489 1488 1487 1487 1486 1485 1484 1484 1483 1482 1481 1481 1480 1479 1479 1478 1478 1478 1478 1478 1477 1477 1477 1477 1476 1476 1476 1475 1475 1474 1471 1468 1468 1469 1470 1471 1471 1472 1473 1474 1474 1475 1477 1478 1478 1478 1477 1477 1477 1474 1472 1471 1469 1468 1468 1467 1468 1468 1460 1453 1450 1446 1443 1445 1449 1451 1452 1452 1453 1455 1453 1452 1453 1454 1455 1453 1450 1449 1449 1454 1460 1464 1468 1472 1476 1480
1491 1490 1489 1488 1487 1487 1486 1486 1485 1484 1483 1482 1481 1481 1480 1480 1479 1478 1478 1478 1478 1477 1477 1477 1477 1477 1476 1476 1476 1475 1476 1474 1469 1468 1468 1469 1470 1470 1470 1471 1472 1473 1474 1475 1476 1478 1477 1477 1476 1475 1475 1473 1470 1469 1467 1466 1466 1465 1463 1462 1457 1453 1452 1448 1447 1450 1453 1454 1455 1455 1455 1455 1452 1452 1454 1453 1455 1453 1449 1447 1445 1450 1457 1461 1466 1471 1475 1478
1491 1490 1489 1488 1488 1487 1486 1486 1485 1484 1483 1482 1481 1481 1480 1480 1479 1478 1478 1478 1478 1478 1477 1477 1477 1477 1476 1476 1476 1476 1476 1473 1469 1469 1469 1468 1469 1469 1470 1471 1472 1473 1473 1475 1476 1476 1476 1476 1475 1474 1473 1472 1469 1466 1464 1463 1464 1465 1462 1458 1456 1455 1454 1451 1450 1452 1455 1457 1457 1457 1455 1453 1453 1453 1452 1451 1452 1452 1451 1448 1443 1448 1456 1461 1465 1468 1472 1476
1491 1490 1489 1489 1488 1488 1487 1486 1485 1484 1483 1483 1482 1481 1480 1480 1479 1479 1478 1478 1478 1478 1477 1477 1477 1476 1476 1477 1476 1476 1476 1472 1469 1469 1468 1468 1469 1469 1470 1470 1471 1472 1473 1475 1475 1475 1475 1475 1474 1472 1471 1471 1468 1464 1461 1461 1461 1462 1461 1457 1455 1454 1452 1452 1453 1454 1457 1459 1458 1456 1455 1453 1454 1452 1449 1449 1450 1451 1454 1453 1450 1454 1459 1463 1466 1468 1472 1475
1490 1490 1489 1489 1488 1488 1487 1486 1486 1485 1484 1483 1482 1481 1480 1480 1479 1479 1479 1479 1478 1478 1478 1477 1477 1477 1477 1477 1477 1476 1474 1471 1469 1468 1468 1468 1468 1468 1469 1470 1471 1472 1473 1474 1474 1474 1474 1474 1472 1471 1470 1467 1465 1462 1459 1459 1458 1458 1460 1458 1455 1453 1452 1453 1454 1455 1457 1457 1457 1456 1454 1453 1452 1450 1447 1448 1449 1451 1455 1457 1458 1460 1463 1466 1469 1471 1474 1476
1490 1490 1489 1489 1488 1488 1487 1486 1486 1485 1484 1483 1482 1481 1481 1480 1480 1479 1479 1479 1479 1478 1478 1477 1477 1477 1477 1477 1478 1476 1471 1469 1468 1468 1468 1467 1468 1468 1469 1470 1471 1472 1473 1473 1473 1474 1473 1472 1471 1469 1467 1464 1461 1458 1456 1458 1457 1455 1458 1457 1455 1453 1452 1454 1454 1455 1456 1455 1454 1454 1453 1451 1449 1449 1448 1447 1448 1450 1453 1457 1460 1463 1466 1468 1470 1472 1475 1478
1489 1489 1489 1488 1488 1487 1487 1487 1486 1485 1484 1483 1483 1482 1481 1480 1480 1479 1479 1479 1479 1479 1478 1478 1477 1478 1478 1477 1478 1475 1470 1469 1468 1467 1467 1467 1468 1468 1469 1471 1472 1473 1473 1473 1473 1472 1471 1470 1469 1467 1466 1463 1461 1458 1455 1457 1457 1455 1455 1455 1453 1451 1451 1453 1453 1452 1453 1453 1452 1452 1451 1448 1446 1450 1450 1446 1448 1451 1453 1456 1460 1463 1466 1468 1470 1473 1476 1479
1489 1488 1488 1488 1487 1487 1487 1486 1486 1485 1484 1483 1483 1482 1481 1480 1480 1480 1479 1479 1479 1479 1478 1478 1478 1478 1478 1478 1478 1474 1470 1470 1469 1468 1468 1468 1468 1469 1470 1471 1473 1473 1473 1472 1472 1471 1471 1469 1468 1467 1465 1463 1461 1459 1456 1456 1456 1454 1455 1454 1453 1451 1451 1452 1450 1450 1451 1450 1450 1450 1448 1445 1445 1449 1447 1445 1449 1452 1453 1457 1462 1464 1467 1470 1473 1476 1478 1480
1488 1488 1487 1487 1487 1486 1486 1486 1486 1485 1484 1484 1483 1482 1481 1481 1480 1480 1479 1479 1479 1479 1478 1478 1478 1478 1477 1477 1475 1472 1471 1471 1470 1469 1469 1469 1470 1470 1471 1472 1473 1473 1472 1472 1472 1471 1470 1469 1469 1467 1464 1464 1461 1458 1456 1455 1455 1454 1456 1457 1455 1452 1452 1450 1448 1449 1450 1448 1448 1450 1451 1449 1446 1446 1443 1445 1449 1450 1452 1457 1462 1465 1468 1472 1475 1478 1480 1483
1487 1487 1486 1486 1486 1486 1486 1485 1485 1485 1484 1484 1483 1482 1482 1481 1480 1480 1480 1479 1479 1479 1478 1478 1478 1477 1478 1476 1471 1471 1472 1471 1470 1470 1470 1470 1471 1471 1472 1472 1472 1472 1471 1471 1470 1470 1470 1470 1470 1467 1465 1464 1460 1458 1456 1453 1455 1456 1455 1457 1456 1454 1450 1446 1446 1448 1448 1446 1445 1451 1458 1453 1444 1441 1441 1446 1449 1449 1452 1456 1461 1464 1468 1473 1476 1479 1482 1485
1486 1486 1486 1486 1485 1485 1485 1485 1485 1484 1484 1483 1483 1482 1482 1481 1481 1480 1480 1479 1479 1479 1478 1478 1478 1478 1478 1474 1470 1470 1471 1470 1470 1470 1470 1471 1471 1471 1472 1472 1472 1472 1471 1471 1470 1469 1470 1470 1470 1468 1466 1464 1459 1457 1457 1454 1455 1456 1455 1455 1455 1456 1448 1438 1441 1446 1446 1444 1443 1450 1458 1451 1440 1438 1443 1447 1448 1449 1450 1453 1458 1463 1469 1474 1476 1481 1485 1486
1486 1485 1485 1485 1484 1484 1484 1484 1484 1484 1484 1483 1483 1482 1481 1481 1481 1480 1480 1479 1479 1478 1478 1478 1478 1478 1477 1473 1469 1469 1469 1469 1470 1469 1470 1470 1470 1471 1471 1472 1472 1472 1472 1471 1470 1470 1470 1470 1469 1467 1464 1462 1460 1459 1457 1455 1454 1453 1458 1458 1453 1452 1443 1434 1439 1442 1444 1443 1443 1451 1457 1450 1439 1436 1442 1446 1447 1449 1449 1450 1458 1464 1469 1474 1478 1483 1487 1486
1485 1485 1484 1484 1484 1484 1483 1484 1484 1483 1483 1483 1482 1482 1481 1481 1480 1480 1479 1479 1479 1478 1478 1478 1478 1478 1476 1471 1468 1468 1468 1469 1469 1469 1470 1469 1470 1470 1471 1472 1471 1471 1472 1471 1470 1470 1470 1469 1468 1465 1462 1460 1458 1459 1457 1456 1454 1450 1455 1456 1449 1445 1440 1439 1441 1438 1440 1443 1444 1450 1454 1449 1438 1434 1441 1447 1447 1448 1448 1450 1458 1464 1466 1470 1476 1482 1485 1486
1485 1484 1484 1483 1483 1483 1483 1483 1483 1483 1483 1483 1482 1481 1480 1480 1479 1479 1479 1479 1479 1477 1478 1477 1478 1479 1474 1469 1467 1467 1467 1467 1468 1469 1469 1469 1469 1469 1470 1471 1470 1471 1471 1471 1470 1469 1469 1468 1466 1464 1461 1459 1455 1455 1461 1463 1457 1450 1449 1450 1446 1439 1437 1441 1442 1437 1437 1442 1443 1447 1450 1446 1438 1437 1442 1446 1447 1447 1447 1450 1456 1461 1464 1467 1471 1476 1481 1483
1485 1484 1483 1483 1483 1482 1482 1482 1482 1482 1482 1482 1481 1481 1480 1479 1478 1478 1478 1478 1478 1478 1478 1477 1479 1480 1471 1465 1466 1465 1465 1466 1467 1468 1468 1468 1468 1468 1469 1469 1469 1470 1469 1469 1469 1467 1467 1465 1463 1461 1459 1458 1455 1454 1462 1461 1452 1449 1447 1445 1444 1438 1435 1437 1438 1436 1437 1441 1443 1445 1448 1446 1440 1441 1442 1442 1444 1447 1447 1449 1455 1460 1464 1466 1468 1472 1476 1478
1485 1484 1483 1483 1483 1482 1482 1482 1482 1482 1482 1482 1481 1480 1479 1478 1477 1477 1477 1477 1477 1476 1474 1472 1474 1473 1465 1460 1462 1463 1464 1465 1466 1467 1468 1468 1468 1468 1468 1468 1467 1467 1467 1466 1465 1464 1464 1462 1462 1462 1458 1456 1452 1451 1455 1452 1448 1448 1442 1439 1441 1439 1435 1431 1431 1433 1436 1442 1446 1445 1447 1445 1440 1441 1439 1439 1443 1447 1448 1447 1452 1459 1463 1465 1467 1469 1473 1475
1485 1484 1483 1483 1482 1482 1482 1482 1482 1482 1482 1481 1480 1479 1478 1476 1474 1474 1476 1476 1474 1470 1467 1466 1467 1464 1460 1459 1460 1462 1463 1465 1466 1466 1466 1467 1468 1467 1467 1467 1466 1465 1465 1462 1461 1460 1460 1462 1461 1459 1455 1451 1448 1447 1450 1450 1449 1449 1444 1439 1439 1440 1438 1432 1431 1433 1436 1443 1446 1443 1445 1442 1439 1439 1437 1439 1442 1445 1447 1447 1449 1455 1460 1463 1465 1466 1470 1473
1485 1484 1483 1483 1482 1482 1482 1482 1482 1482 1482 1481 1480 1479 1477 1474 1473 1474 1475 1472 1469 1467 1466 1465 1464 1462 1460 1459 1460 1462 1463 1464 1465 1465 1465 1466 1466 1466 1465 1465 1464 1463 1462 1458 1456 1457 1460 1463 1459 1452 1450 1448 1448 1448 1450 1452 1452 1452 1450 1445 1442 1441 1438 1433 1433 1434 1438 1446 1446 1442 1444 1441 1438 1439 1437 1437 1442 1443 1446 1449 1450 1452 1455 1458 1460 1463 1468 1471
1485 1484 1483 1483 1482 1482 1482 1482 1482 1482 1482 1481 1479 1478 1476 1476 1476 1475 1475 1470 1466 1465 1464 1463 1462 1461 1460 1459 1460 1461 1462 1461 1462 1463 1464 1464 1465 1464 1461 1462 1462 1460 1458 1456 1456 1459 1462 1461 1453 1447 1448 1449 1450 1451 1452 1453 1454 1455 1452 1450 1450 1444 1437 1438 1439 1437 1440 1448 1450 1446 1446 1443 1438 1438 1437 1437 1442 1444 1445 1450 1451 1451 1453 1456 1458 1461 1466 1470
1486 1484 1484 1483 1482 1483 1482 1482 1482 1482 1481 1481 1479 1478 1477 1477 1476 1476 1475 1471 1464 1461 1460 1460 1460 1459 1459 1459 1459 1460 1459 1457 1458 1459 1461 1462 1462 1461 1459 1458 1458 1455 1454 1454 1457 1461 1461 1455 1447 1444 1447 1449 1451 1452 1454 1455 1455 1456 1454 1455 1454 1444 1441 1446 1445 1442 1443 1447 1450 1449 1449 1447 1441 1437 1438 1440 1442 1442 1446 1451 1452 1450 1452 1455 1458 1460 1463 1467
1485 1484 1484 1483 1483 1483 1482 1482 1482 1481 1481 1480 1478 1477 1478 1477 1476 1475 1474 1469 1463 1457 1456 1457 1458 1457 1456 1457 1458 1458 1457 1455 1453 1453 1457 1460 1459 1459 1458 1455 1454 1454 1450 1448 1452 1457 1454 1447 1443 1445 1448 1450 1454 1455 1455 1458 1458 1455 1454 1456 1453 1444 1441 1444 1445 1445 1447 1448 1450 1453 1458 1455 1446 1442 1443 1442 1440 1442 1447 1450 1450 1451 1453 1455 1457 1459 1462 1464
1486 1485 1484 1483 1483 1482 1482 1482 1481 1481 1480 1479 1478 1476 1478 1478 1476 1475 1474 1470 1463 1456 1453 1454 1455 1454 1453 1455 1456 1455 1455 1453 1449 1448 1452 1457 1457 1455 1454 1453 1453 1452 1448 1445 1447 1451 1450 1446 1444 1447 1450 1451 1455 1456 1455 1459 1460 1456 1452 1451 1449 1446 1443 1443 1445 1450 1458 1461 1452 1455 1471 1466 1447 1444 1447 1443 1440 1444 1447 1447 1448 1451 1453 1454 1456 1459 1462 1463
1486 1485 1483 1483 1483 1482 1482 1481 1480 1481 1479 1478 1478 1477 1479 1477 1475 1476 1473 1472 1465 1454 1451 1452 1451 1450 1450 1453 1454 1455 1455 1451 1446 1446 1450 1454 1455 1452 1452 1451 1450 1449 1447 1443 1442 1443 1446 1446 1445 1448 1451 1452 1454 1456 1453 1454 1459 1459 1450 1445 1445 1446 1446 1446 1446 1453 1464 1465 1451 1451 1470 1470 1451 1443 1444 1440 1440 1444 1447 1447 1448 1451 1453 1454 1455 1458 1461 1464
1486 1485 1483 1483 1482 1482 1482 1480 1480 1480 1478 1479 1478 1478 1479 1476 1476 1475 1474 1480 1471 1452 1449 1451 1449 1449 1448 1450 1452 1455 1456 1449 1444 1446 1449 1453 1453 1452 1453 1450 1447 1447 1445 1446 1448 1446 1444 1446 1448 1451 1453 1454 1455 1455 1451 1450 1457 1458 1448 1445 1446 1445 1448 1448 1448 1454 1457 1454 1451 1450 1459 1468 1462 1449 1441 1437 1438 1444 1448 1449 1449 1450 1452 1454 1455 1458 1461 1464
1485 1484 1483 1482 1481 1481 1480 1480 1480 1478 1478 1479 1477 1479 1478 1475 1477 1474 1479 1490 1471 1445 1445 1448 1448 1449 1447 1449 1451 1451 1450 1446 1445 1446 1448 1453 1452 1452 1453 1448 1446 1444 1441 1448 1455 1449 1444 1446 1450 1452 1455 1455 1453 1450 1446 1445 1451 1451 1445 1445 1446 1444 1446 1445 1447 1451 1450 1455 1462 1454 1452 1467 1467 1450 1441 1439 1438 1445 1449 1449 1450 1449 1450 1452 1454 1457 1459 1461
1484 1483 1482 1481 1481 1481 1480 1480 1479 1477 1478 1478 1478 1479 1476 1476 1477 1473 1483 1488 1461 1439 1443 1445 1447 1449 1446 1447 1450 1447 1444 1445 1446 1445 1447 1452 1452 1451 1451 1447 1446 1444 1440 1444 1450 1447 1444 1444 1444 1448 1453 1453 1449 1445 1441 1441 1444 1444 1445 1447 1446 1446 1445 1445 1447 1448 1452 1465 1471 1458 1453 1467 1468 1450 1443 1443 1441 1446 1449 1447 1448 1449 1450 1453 1455 1457 1458 1460
1483 1482 1482 1481 1480 1480 1479 1479 1478 1477 1477 1478 1479 1477 1476 1477 1476 1480 1491 1480 1451 1440 1442 1443 1445 1446 1445 1446 1448 1447 1445 1444 1444 1446 1448 1450 1451 1451 1450 1447 1446 1445 1442 1443 1446 1444 1440 1442 1445 1447 1449 1447 1444 1441 1439 1439 1440 1442 1446 1449 1450 1448 1445 1446 1449 1451 1463 1474 1469 1458 1452 1462 1469 1456 1445 1443 1440 1442 1447 1446 1446 1447 1451 1456 1457 1459 1460 1462
1482 1481 1481 1480 1480 1479 1478 1478 1478 1478 1478 1478 1477 1476 1477 1476 1475 1487 1488 1463 1446 1443 1439 1442 1443 1441 1444 1447 1445 1446 1446 1443 1442 1446 1449 1448 1450 1451 1450 1450 1448 1449 1449 1447 1447 1443 1439 1443 1447 1447 1446 1445 1444 1442 1440 1440 1439 1442 1447 1450 1455 1454 1452 1456 1457 1460 1476 1478 1463 1454 1447 1455 1469 1460 1447 1444 1439 1440 1445 1445 1445 1448 1453 1457 1460 1461 1462 1464
1480 1480 1479 1479 1479 1478 1477 1477 1477 1478 1477 1476 1476 1475 1477 1478 1478 1483 1472 1454 1455 1450 1437 1439 1438 1436 1442 1444 1442 1443 1443 1442 1440 1443 1446 1446 1448 1449 1450 1450 1449 1456 1460 1452 1449 1448 1445 1443 1441 1442 1444 1445 1447 1447 1445 1442 1441 1445 1449 1454 1464 1469 1470 1476 1475 1472 1478 1471 1457 1451 1450 1455 1461 1453 1445 1444 1441 1442 1445 1444 1446 1450 1454 1458 1460 1462 1464 1466
1478 1477 1477 1477 1477 1476 1476 1476 1476 1477 1475 1475 1477 1474 1476 1484 1480 1469 1457 1453 1457 1447 1435 1436 1433 1432 1439 1440 1440 1439 1440 1441 1438 1439 1443 1443 1445 1445 1447 1445 1443 1453 1459 1453 1453 1454 1453 1447 1439 1439 1441 1442 1446 1449 1449 1445 1443 1448 1450 1455 1467 1476 1484 1490 1483 1477 1476 1467 1455 1450 1455 1462 1458 1447 1443 1442 1441 1443 1444 1445 1449 1452 1455 1459 1461 1463 1465 1467
1476 1475 1475 1475 1474 1474 1474 1475 1475 1475 1475 1475 1476 1474 1478 1486 1476 1459 1453 1449 1446 1440 1437 1435 1431 1433 1436 1436 1436 1435 1439 1441 1436 1437 1440 1441 1445 1445 1446 1444 1440 1444 1451 1454 1456 1456 1461 1458 1445 1440 1439 1439 1443 1444 1445 1442 1440 1443 1443 1448 1460 1469 1481 1487 1482 1478 1476 1468 1458 1453 1460 1465 1461 1452 1443 1439 1442 1444 1446 1448 1452 1454 1458 1461 1462 1463 1465 1467
1474 1473 1473 1472 1472 1472 1472 1474 1474 1474 1475 1475 1473 1474 1478 1479 1468 1457 1452 1443 1438 1439 1438 1434 1432 1435 1436 1433 1432 1431 1436 1440 1437 1438 1439 1440 1444 1443 1442 1443 1440 1442 1448 1455 1453 1450 1458 1455 1439 1435 1436 1437 1442 1441 1438 1441 1443 1440 1437 1447 1457 1457 1463 1472 1472 1469 1470 1472 1467 1461 1460 1455 1453 1450 1441 1440 1446 1446 1448 1451 1453 1458 1460 1461 1463 1464 1466 1469
1472 1471 1471 1469 1470 1470 1470 1472 1472 1473 1474 1473 1473 1473 1471 1465 1458 1451 1444 1437 1435 1437 1438 1438 1437 1439 1440 1436 1433 1431 1433 1437 1439 1441 1440 1438 1439 1437 1437 1440 1441 1444 1447 1451 1450 1450 1457 1450 1433 1434 1438 1437 1442 1439 1435 1442 1447 1442 1442 1451 1451 1446 1451 1464 1470 1463 1466 1478 1472 1461 1459 1452 1449 1450 1442 1443 1448 1446 1449 1452 1454 1458 1459 1462 1465 1466 1468 1470
1470 1469 1468 1467 1467 1468 1469 1470 1472 1473 1473 1472 1473 1470 1461 1454 1449 1444 1439 1437 1438 1438 1441 1445 1442 1441 1443 1442 1440 1435 1435 1440 1441 1442 1442 1439 1436 1434 1433 1438 1442 1444 1444 1447 1449 1449 1456 1454 1438 1435 1441 1438 1437 1439 1436 1437 1442 1445 1448 1448 1444 1445 1448 1457 1470 1470 1471 1480 1470 1458 1461 1457 1455 1455 1445 1444 1449 1447 1448 1451 1454 1458 1460 1463 1466 1467 1470 1471
1468 1468 1467 1465 1465 1467 1468 1470 1471 1472 1472 1470 1470 1466 1458 1452 1447 1442 1437 1437 1439 1439 1442 1446 1444 1441 1443 1445 1444 1439 1439 1444 1442 1441 1442 1439 1437 1434 1433 1439 1444 1445 1445 1448 1452 1449 1453 1460 1449 1438 1441 1437 1432 1441 1445 1440 1439 1443 1445 1441 1443 1456 1459 1457 1467 1475 1477 1481 1472 1461 1458 1454 1453 1452 1444 1445 1448 1447 1448 1450 1452 1457 1460 1464 1467 1469 1470 1471
1467 1467 1464 1461 1462 1465 1467 1469 1470 1470 1470 1468 1467 1462 1456 1451 1446 1441 1438 1438 1441 1443 1442 1443 1441 1441 1443 1445 1444 1441 1442 1444 1442 1441 1441 1438 1440 1441 1438 1441 1445 1446 1447 1448 1451 1449 1450 1461 1460 1445 1439 1437 1432 1440 1449 1446 1439 1438 1440 1440 1441 1450 1456 1455 1458 1464 1471 1477 1474 1468 1462 1454 1450 1447 1443 1444 1445 1445 1448 1448 1450 1454 1458 1463 1467 1470 1471 1472
1467 1466 1462 1459 1461 1464 1465 1467 1468 1468 1467 1465 1462 1457 1451 1446 1442 1439 1438 1440 1444 1444 1443 1441 1438 1440 1442 1442 1442 1442 1442 1442 1440 1441 1439 1435 1442 1448 1443 1443 1446 1447 1449 1449 1450 1450 1449 1458 1464 1452 1442 1442 1441 1442 1445 1446 1443 1441 1443 1445 1446 1445 1447 1451 1451 1451 1459 1468 1470 1472 1469 1457 1449 1445 1443 1444 1444 1444 1446 1448 1449 1452 1456 1462 1467 1470 1471 1472
1466 1464 1460 1459 1461 1462 1464 1466 1465 1464 1462 1459 1457 1453 1448 1445 1442 1438 1439 1443 1446 1444 1442 1441 1439 1440 1441 1441 1442 1442 1441 1441 1440 1441 1441 1437 1442 1447 1443 1443 1445 1445 1448 1451 1451 1452 1453 1458 1464 1459 1452 1450 1445 1438 1437 1439 1441 1443 1444 1445 1449 1451 1453 1463 1466 1457 1455 1461 1465 1470 1470 1459 1448 1442 1441 1444 1445 1444 1446 1449 1450 1451 1456 1462 1467 1470 1472 1472
1465 1462 1457 1458 1460 1461 1463 1463 1461 1459 1458 1455 1452 1449 1446 1445 1444 1442 1441 1443 1445 1445 1442 1441 1440 1441 1442 1442 1443 1441 1440 1442 1442 1442 1443 1439 1440 1444 1443 1443 1445 1446 1450 1453 1451 1452 1455 1459 1463 1461 1455 1449 1443 1437 1436 1437 1436 1440 1443 1442 1445 1448 1451 1464 1471 1464 1460 1460 1459 1465 1471 1464 1451 1443 1442 1444 1445 1445 1447 1449 1450 1452 1458 1463 1467 1470 1472 1473
1463 1459 1456 1457 1459 1460 1462 1460 1457 1455 1453 1451 1448 1445 1443 1443 1444 1444 1442 1441 1442 1443 1442 1441 1440 1442 1442 1441 1442 1441 1442 1444 1443 1442 1442 1440 1442 1446 1446 1447 1449 1449 1452 1453 1453 1456 1458 1460 1465 1463 1454 1447 1442 1437 1435 1435 1436 1441 1443 1441 1444 1446 1446 1450 1453 1453 1458 1460 1459 1465 1471 1465 1454 1447 1446 1446 1446 1446 1447 1449 1452 1455 1459 1464 1468 1470 1472 1473
1462 1458 1457 1457 1458 1459 1460 1458 1456 1453 1450 1448 1445 1443 1442 1442 1443 1444 1443 1441 1440 1440 1442 1442 1442 1443 1443 1441 1441 1442 1444 1447 1445 1443 1442 1441 1445 1449 1449 1451 1452 1451 1453 1455 1457 1460 1463 1462 1465 1469 1467 1460 1453 1446 1442 1439 1439 1442 1442 1441 1444 1444 1444 1447 1446 1449 1459 1460 1459 1466 1468 1461 1455 1450 1448 1448 1447 1447 1448 1450 1453 1456 1460 1465 1468 1470 1472 1474
1462 1458 1456 1455 1457 1458 1456 1454 1453 1450 1447 1446 1445 1444 1444 1443 1444 1445 1445 1444 1442 1441 1444 1445 1444 1444 1444 1443 1443 1443 1444 1446 1446 1445 1443 1441 1445 1449 1450 1453 1454 1453 1455 1457 1457 1461 1464 1462 1464 1470 1475 1472 1465 1457 1453 1450 1448 1447 1445 1445 1447 1447 1448 1452 1452 1457 1464 1460 1457 1463 1464 1459 1455 1453 1453 1453 1450 1449 1450 1451 1452 1455 1460 1464 1467 1470 1472 1474
1463 1459 1455 1453 1453 1454 1454 1452 1451 1449 1448 1449 1450 1448 1447 1446 1445 1446 1447 1448 1446 1444 1446 1447 1445 1446 1447 1446 1448 1447 1446 1445 1445 1446 1445 1443 1445 1447 1449 1452 1454 1456 1459 1460 1459 1461 1464 1464 1464 1467 1469 1467 1462 1455 1451 1452 1455 1455 1451 1449 1449 1449 1451 1454 1458 1461 1462 1460 1461 1460 1457 1458 1458 1457 1461 1462 1457 1453 1452 1452 1454 1455 1458 1462 1466 1470 1472 1474
1464 1460 1458 1457 1455 1453 1451 1450 1449 1448 1447 1450 1451 1449 1448 1448 1446 1447 1449 1450 1448 1446 1448 1448 1446 1448 1450 1450 1452 1453 1450 1448 1447 1447 1446 1445 1444 1446 1450 1452 1454 1457 1459 1460 1461 1463 1467 1468 1466 1465 1464 1461 1458 1454 1452 1454 1456 1454 1453 1451 1450 1450 1450 1454 1460 1460 1458 1464 1466 1458 1455 1462 1461 1457 1460 1462 1460 1458 1457 1457 1458 1458 1458 1462 1466 1470 1472 1474
1466 1463 1461 1463 1462 1457 1454 1453 1451 1449 1447 1449 1449 1448 1448 1450 1449 1449 1450 1451 1450 1449 1451 1452 1450 1449 1450 1450 1452 1454 1454 1453 1451 1449 1448 1447 1446 1448 1451 1452 1455 1458 1460 1461 1461 1462 1467 1469 1465 1463 1463 1459 1456 1455 1453 1453 1453 1451 1452 1452 1450 1451 1453 1455 1457 1455 1456 1463 1465 1458 1458 1463 1461 1458 1458 1458 1459 1460 1459 1459 1460 1460 1461 1462 1465 1469 1471 1472
1470 1467 1465 1466 1464 1460 1458 1458 1456 1454 1452 1452 1453 1452 1452 1453 1452 1451 1451 1453 1455 1453 1453 1455 1453 1450 1449 1448 1449 1453 1456 1459 1459 1456 1454 1453 1452 1452 1453 1453 1455 1457 1458 1459 1460 1461 1466 1468 1464 1464 1463 1459 1456 1455 1453 1453 1454 1452 1452 1450 1448 1449 1452 1453 1453 1451 1452 1456 1456 1456 1459 1460 1458 1457 1457 1457 1459 1460 1459 1460 1460 1460 1461 1462 1464 1467 1469 1470
1476 1474 1472 1469 1466 1462 1460 1459 1458 1457 1454 1454 1456 1455 1455 1455 1455 1454 1453 1455 1459 1458 1457 1458 1456 1454 1452 1448 1447 1454 1459 1463 1464 1462 1461 1461 1459 1458 1458 1457 1457 1455 1455 1457 1459 1462 1467 1468 1465 1465 1468 1464 1459 1456 1455 1455 1455 1453 1452 1450 1449 1450 1450 1451 1452 1453 1454 1455 1454 1456 1461 1461 1458 1456 1456 1458 1460 1459 1459 1460 1459 1460 1461 1461 1463 1465 1467 1468
1480 1480 1478 1475 1470 1464 1462 1460 1458 1457 1457 1459 1460 1459 1458 1458 1456 1456 1457 1457 1459 1461 1461 1462 1461 1460 1456 1451 1453 1460 1464 1464 1464 1463 1462 1463 1462 1460 1460 1459 1459 1458 1457 1458 1460 1463 1467 1469 1468 1470 1474 1470 1462 1458 1457 1454 1453 1454 1454 1453 1453 1454 1453 1453 1453 1453 1455 1457 1457 1460 1463 1461 1459 1459 1459 1460 1460 1461 1462 1462 1461 1461 1461 1461 1462 1463 1464 1466
1480 1479 1478 1477 1473 1467 1462 1460 1459 1462 1466 1466 1465 1462 1461 1460 1458 1459 1462 1462 1461 1462 1463 1466 1466 1463 1461 1460 1463 1467 1467 1465 1466 1465 1464 1464 1462 1461 1461 1461 1460 1461 1461 1461 1463 1463 1465 1469 1471 1473 1476 1473 1464 1460 1458 1458 1463 1463 1458 1456 1456 1455 1454 1456 1455 1454 1454 1457 1461 1463 1462 1460 1460 1462 1462 1462 1463 1465 1466 1465 1465 1464 1463 1462 1461 1461 1462 1465